Find Starlink 2566

NORAD ID: 48287 Int'l Des: 2021-036 Owner: SPXS Country: US Constellation: starlink operational
LEOCIRCULAR

Live-Position

3D-Globus wird geladen...

Über Starlink 2566

Beschreibung wird geladen...

Nächste Überflüge

Passes for default location (London). Set your location on the main map for personalized predictions.

Höhenverlauf

Loading altitude history...

Zweizeiliger Elementsatz

1 48287U 21036M 26125.39679196 .00004708 00000-0 16333-3 0 9995
2 48287 53.1601 174.1537 0000299 319.7419 40.3560 15.31705855277058
Epoch: 5. Mai 2026 • Age: 13 hours

Aktueller Status

Höhe 474.6 km
Geschwindigkeit 7.63 km/s
Subsatellitenpunkt 40.64°N, 109.09°E
Startdatum 29. Apr. 2021
Alter 5 years
Typ internet

Technische Details

Klassifizierung Payload
Masse 260.00 kg
Trockenmasse 248.00 kg
Gesamtmasse 260.00 kg
Länge 0.20 m
Durchmesser 2.80 m
Spannweite 9.00 m
Form Box + pan
Hersteller SPXS
Bus-Typ Starlink
Phasenstatus In Orbit
Besitzer/Staat SPXS/US

Most Searched